Volver al catálogo

CZ-6A DEB

ActivoSSO
NORAD 54555·DEBRIS·🇨🇳 China

Lanzado Nov 11, 2022 desde Taiyuan Satellite Launch Center

Loading…

Próximos Pases (próximas 24 horas)

TLE

ActualizadoSource: Space-Track

Época: Sep 14, 2026, 12:47 UTC

1 54555U 22151LF  26257.53312967  .00000331  00000-0  15197-3 0  9996
2 54555  98.7194 284.0657 0043415  92.5294 268.0858 14.27287688199643

Sigue CZ-6A DEB en tiempo real con AllMySat

Download on the App Store